Theta_e
345 347 353 350 353 355 355 355 354 355 354 354 354 354 354 353 353 352 351 351 350 350 349 348 348 348 348 351 351 351 350 352 352 352 351 348 348 349 349 348 347 348 348 348 349 348 348 349 349 349 349 349 349 348 349 349 348 348 346 346 347 349 349 349 348 348 348 349 350 350 349 350 351 351 351 352 352 351 350 350 350 347 348 348 349
345 348 352 353 352 355 355 355 355 355 354 354 354 354 353 353 352 351 350 350 350 349 349 348 348 348 352 352 351 350 350 349 351 352 352 351 349 348 349 349 349 350 349 348 347 347 347 346 346 345 345 345 346 346 347 346 346 346 345 344 345 348 348 348 348 348 347 348 349 348 348 349 350 350 351 351 351 350 349 349 349 348 348 348 349
347 348 352 353 351 355 355 355 354 354 354 354 354 353 352 352 351 351 350 350 349 348 348 348 348 347 349 350 349 349 349 349 351 351 351 351 350 349 349 348 348 348 347 346 345 344 343 342 342 341 340 340 341 342 343 344 344 344 344 343 343 346 347 348 347 347 347 348 348 347 347 348 348 348 350 350 350 349 348 348 348 348 345 348 348
345 347 352 351 348 351 354 355 355 354 353 354 353 353 352 352 351 351 350 349 349 348 348 348 347 347 347 347 347 348 348 348 350 350 351 350 349 348 347 347 347 347 347 346 345 344 343 343 343 343 341 339 338 338 339 340 341 342 343 343 343 344 346 347 347 347 344 346 348 345 344 346 346 347 348 348 348 348 346 346 347 347 347 348 348
346 347 352 352 354 352 353 354 355 354 354 354 354 353 352 352 351 351 350 350 349 348 347 347 347 347 347 346 347 347 347 348 348 349 350 350 349 348 348 347 346 347 346 347 345 345 344 344 343 342 340 339 338 337 337 338 339 340 342 342 343 344 345 346 346 345 346 345 346 346 341 344 345 346 347 347 347 346 345 345 344 346 347 347 348
345 347 352 351 351 355 350 353 354 354 354 354 353 353 352 352 351 351 350 349 349 348 347 347 346 347 347 347 347 347 347 347 348 349 349 349 349 348 348 347 347 346 346 347 345 346 345 344 342 340 339 338 337 336 336 337 339 340 340 341 343 344 345 345 344 344 344 342 340 342 340 343 344 344 346 346 347 345 345 345 344 344 345 346 347
346 347 348 349 351 351 347 353 354 354 354 354 352 353 352 351 351 350 350 349 348 348 347 346 346 347 347 346 347 347 347 347 348 348 349 349 349 348 347 347 347 346 346 346 346 345 344 343 341 340 339 336 335 335 335 335 337 340 340 341 343 344 344 343 342 341 342 342 340 339 338 342 344 345 345 345 346 345 344 345 344 344 344 344 345
348 348 347 349 351 349 347 353 354 354 354 353 352 352 352 351 351 350 350 349 348 347 346 346 346 346 347 347 347 347 347 346 347 348 347 348 348 348 347 347 347 347 345 345 346 345 344 342 341 339 337 335 334 333 333 334 336 338 339 341 342 341 341 341 341 342 341 340 339 337 338 338 343 344 346 346 344 343 344 343 344 344 343 343 342
346 347 347 348 351 346 347 350 354 353 353 353 353 353 352 351 351 350 350 349 348 346 346 346 345 346 346 347 347 346 346 347 346 346 347 347 347 348 347 346 346 346 346 346 346 344 343 341 339 337 336 334 332 331 331 332 335 339 339 340 340 340 339 339 340 340 342 337 338 339 340 340 340 342 344 345 345 344 343 341 341 341 343 341 341
344 347 347 346 354 343 348 349 353 353 353 352 352 352 352 351 350 350 350 349 347 346 346 345 345 346 346 347 346 346 346 346 346 346 346 346 347 347 347 346 345 345 344 344 344 344 342 340 338 336 335 333 331 330 330 330 335 338 338 338 338 338 339 339 340 338 340 338 339 337 338 342 341 342 343 345 344 342 341 340 340 340 341 340 340
344 347 347 347 354 343 349 352 352 352 352 352 352 351 350 350 350 349 350 348 347 346 346 345 346 346 347 347 346 346 347 346 346 346 346 346 346 347 346 346 345 343 342 342 342 343 342 339 337 335 334 332 330 329 329 331 336 336 336 337 337 337 338 339 337 341 337 337 338 337 336 342 339 341 343 343 343 341 339 338 339 340 340 340 340
342 347 347 352 345 342 347 349 350 353 351 352 350 351 350 349 349 348 349 348 347 347 347 347 346 347 347 347 347 346 346 346 346 346 345 345 346 346 346 344 343 342 341 341 341 341 341 339 336 335 332 330 329 327 328 331 334 335 335 335 336 337 336 336 337 335 336 336 335 339 338 336 338 339 341 342 341 339 337 337 337 338 339 339 339
344 345 346 352 353 339 344 348 349 351 352 351 350 352 351 350 350 349 349 348 347 347 347 347 347 346 347 346 346 346 346 345 345 346 345 345 346 345 345 343 343 342 341 341 342 342 340 338 336 333 331 329 327 327 328 330 333 334 334 335 335 336 336 332 336 335 336 336 335 337 337 337 338 339 340 340 339 338 335 335 336 336 336 334 336
342 344 344 344 350 342 337 342 346 350 351 350 350 350 351 350 349 349 349 349 348 347 347 347 347 347 347 346 346 346 347 345 344 345 345 346 346 345 344 343 343 342 342 342 341 339 338 336 334 332 330 328 326 326 327 329 331 332 334 334 334 333 331 332 333 335 334 335 335 335 337 337 337 337 338 337 337 337 335 335 335 334 334 333 332
341 343 344 344 350 349 338 337 343 345 348 349 350 350 349 349 349 348 348 348 348 347 347 347 347 346 346 346 346 345 344 344 343 341 342 345 344 343 342 342 342 343 342 341 339 337 336 334 333 331 329 327 326 325 325 327 329 330 331 331 330 330 328 332 334 334 332 334 333 334 336 336 339 335 335 335 335 335 334 334 334 332 331 331 330
340 340 341 341 343 349 349 341 335 338 343 346 347 347 348 348 348 348 348 347 348 348 348 347 347 346 346 346 345 346 345 345 343 343 343 343 342 343 342 341 341 340 340 341 339 337 334 333 332 330 328 327 325 324 325 326 328 329 330 329 328 328 327 325 333 334 332 333 333 335 335 335 339 334 334 334 333 333 333 333 333 331 329 331 331
338 339 339 340 343 345 345 348 344 331 335 338 341 342 345 347 348 348 347 347 347 349 348 348 347 347 346 346 344 346 345 344 343 343 343 343 343 342 341 341 340 340 340 341 338 336 334 332 330 329 328 326 324 323 325 326 327 328 327 326 327 326 325 323 332 332 331 331 334 333 334 335 336 335 334 333 333 332 332 332 331 329 330 331 331
338 339 338 339 341 342 343 345 349 349 349 342 334 337 342 346 345 345 344 346 346 348 348 349 347 347 346 345 344 343 344 343 344 343 343 343 342 341 342 340 340 340 340 339 336 335 333 332 330 329 328 325 323 322 323 324 325 326 325 324 325 324 325 322 332 331 330 332 333 332 333 335 336 335 333 333 332 332 332 332 329 328 330 330 329
336 336 338 338 339 341 342 344 346 347 347 347 349 347 333 340 344 342 342 343 344 344 345 344 343 344 342 340 340 338 336 337 339 341 341 339 337 336 342 341 340 340 340 338 336 334 332 331 330 328 326 323 321 321 322 322 323 323 324 323 321 320 317 324 330 330 332 330 331 332 331 334 335 335 333 333 332 332 332 330 327 328 330 330 329
331 334 335 337 338 338 340 342 344 344 346 345 346 349 336 333 337 338 337 338 339 341 341 338 335 335 334 333 330 333 329 337 328 338 333 337 335 337 338 339 341 340 339 337 335 334 333 332 330 327 323 320 318 318 318 319 319 320 320 320 321 315 328 326 328 327 330 327 330 329 330 334 333 334 332 332 332 331 331 327 329 328 329 329 328
322 323 323 323 329 336 337 339 341 343 344 345 345 347 349 331 334 331 332 334 337 336 336 329 323 323 327 324 325 347 346 345 340 344 328 342 328 328 334 338 341 340 338 336 335 334 333 332 330 327 322 317 315 316 316 315 315 317 317 319 313 326 322 323 325 324 325 327 327 325 328 332 331 331 331 332 331 331 328 328 329 329 328 328 328
318 319 320 321 323 325 334 337 339 341 343 344 345 346 348 340 347 347 346 340 332 331 337 345 337 347 328 336 345 344 344 343 344 338 342 340 334 324 330 337 340 337 336 336 335 334 333 332 330 326 321 317 317 319 317 312 313 316 317 312 324 316 319 320 321 322 323 321 325 321 326 330 332 331 331 330 329 329 327 327 328 328 328 326 327
316 318 319 319 320 322 323 330 337 340 342 343 344 344 344 346 346 346 346 337 341 343 345 345 344 344 345 345 341 343 343 343 345 340 340 331 336 324 328 332 335 334 335 336 335 334 334 333 329 325 321 318 321 323 318 320 318 309 310 317 312 313 316 317 317 317 320 317 321 318 322 327 330 330 330 329 328 327 326 328 327 327 326 326 327
315 316 318 320 320 321 322 323 330 338 340 341 342 342 342 344 345 344 345 345 343 344 346 344 343 343 344 345 343 342 341 342 328 325 333 341 334 322 326 328 330 329 329 333 332 334 333 331 327 324 322 323 324 321 319 316 316 314 312 308 309 311 313 313 313 315 315 319 313 315 316 322 327 331 333 331 328 326 326 326 327 327 326 326 326
315 317 318 318 319 319 320 322 324 334 338 340 340 340 341 342 343 343 342 344 343 343 344 343 343 344 343 342 344 343 343 342 343 342 341 340 340 339 337 338 337 337 327 336 334 334 332 331 328 324 329 326 324 322 323 321 320 318 315 311 309 310 312 313 312 311 314 314 310 315 314 316 322 327 330 331 331 334 335 329 326 327 326 326 326
314 315 316 317 318 318 319 321 321 327 336 339 340 340 340 340 341 341 342 345 347 343 342 342 343 344 344 344 342 343 341 342 341 342 342 340 339 338 337 338 339 336 333 335 335 334 334 334 332 330 328 327 324 323 321 320 320 319 316 314 312 310 312 310 309 312 312 313 312 312 313 315 316 320 325 328 329 331 332 334 329 325 328 327 326
312 313 316 316 317 318 319 321 320 326 334 338 339 340 340 340 341 341 340 341 344 343 343 343 342 342 342 342 341 340 340 341 340 340 340 340 338 341 339 337 336 335 335 334 334 334 334 333 331 330 327 326 323 320 319 318 319 319 317 316 315 312 311 310 309 309 312 312 313 309 312 314 314 314 317 322 325 327 329 331 334 329 327 327 328
312 313 314 315 316 316 319 322 320 325 333 334 336 337 340 340 340 341 341 340 341 341 343 343 342 340 342 342 341 341 339 339 340 340 343 338 339 338 338 338 335 335 335 335 334 334 333 332 332 329 327 326 323 321 320 320 319 321 319 318 316 314 313 310 310 311 311 313 312 311 313 312 312 315 314 315 318 322 325 328 332 334 334 334 328
309 312 313 313 314 315 319 321 321 326 331 332 334 336 337 339 340 341 339 337 339 339 339 342 341 341 341 340 340 339 339 337 338 338 338 337 336 339 340 336 335 335 336 334 334 333 332 331 331 329 329 327 325 324 323 322 322 321 319 318 317 315 314 313 313 312 313 311 314 311 312 310 312 313 313 314 315 318 321 324 327 331 333 333 333
309 311 310 311 312 315 319 321 324 328 330 332 333 335 337 338 336 334 331 330 329 329 330 330 331 331 333 335 335 336 337 336 336 337 337 337 337 337 336 335 334 334 333 333 333 333 331 332 329 327 327 327 327 325 324 322 322 320 319 318 317 316 317 316 316 315 315 313 314 312 307 310 310 312 312 313 314 315 317 320 323 326 330 332 332
308 308 308 309 311 315 319 324 323 329 331 331 332 332 330 329 327 327 327 326 325 325 326 326 326 326 328 331 333 333 335 335 335 332 332 334 333 335 335 333 333 334 333 332 333 332 333 329 326 325 325 326 325 325 323 323 323 320 319 318 317 318 317 317 316 317 315 314 313 313 316 306 309 309 311 312 312 312 313 315 319 322 325 328 331
306 306 306 309 312 316 320 322 325 329 330 327 325 324 324 323 323 324 322 321 321 321 320 321 321 322 323 325 329 330 331 330 331 330 330 328 327 326 326 326 326 327 326 326 326 326 325 323 322 322 323 322 322 322 323 323 323 321 320 319 319 319 318 318 317 315 314 313 314 314 315 313 310 310 310 310 311 311 312 313 316 317 319 323 326
305 306 307 309 311 315 319 319 320 320 320 320 319 319 319 318 318 319 319 319 317 317 317 318 318 321 321 320 322 325 326 327 327 327 325 324 324 322 321 320 321 321 321 321 322 323 323 321 320 321 320 321 324 322 323 323 322 321 321 319 319 319 319 318 318 316 314 315 313 311 313 313 309 311 308 311 309 310 311 313 313 315 316 319 322
303 305 307 308 311 317 317 317 318 314 314 314 314 314 314 313 314 314 316 316 315 313 313 314 314 315 317 318 319 319 321 322 323 323 323 321 320 320 320 320 320 320 321 321 319 319 318 317 318 319 316 318 318 317 319 320 320 321 321 319 319 319 318 317 317 316 315 316 315 317 312 313 309 314 311 311 311 310 310 310 311 311 313 315 315
303 304 305 306 313 315 314 312 312 312 311 310 309 309 309 309 309 309 310 313 312 311 311 311 311 311 313 313 315 317 319 320 320 319 319 318 317 316 317 318 319 319 319 320 319 319 318 317 317 319 318 317 315 314 315 316 317 318 319 318 318 318 318 317 317 318 315 315 312 314 312 310 312 312 310 306 308 309 310 309 309 310 311 310 311
302 303 305 307 310 312 311 310 309 307 307 307 306 306 306 306 306 306 306 308 308 309 309 309 309 309 309 309 311 312 314 316 317 318 318 318 317 316 316 316 317 317 316 317 318 317 315 315 314 317 319 317 317 315 314 315 316 317 318 317 318 317 317 316 316 315 315 312 312 311 311 309 309 307 304 308 309 311 309 309 308 309 309 310 311
302 303 304 306 308 310 309 308 307 306 305 305 305 305 304 304 304 304 304 305 305 305 306 307 307 306 307 306 306 307 309 310 312 313 313 313 314 315 315 315 315 314 314 313 312 313 314 312 310 309 312 314 313 312 311 310 310 311 314 315 316 316 315 315 314 313 312 311 310 308 309 309 309 305 306 306 306 306 309 307 308 308 309 309 310
302 303 305 306 308 308 308 307 306 306 305 304 304 304 303 303 302 302 302 302 302 303 303 303 303 304 305 304 305 305 305 307 307 308 309 309 309 309 308 310 312 312 312 312 311 311 311 310 306 305 306 307 307 306 306 306 307 307 308 310 312 313 314 314 313 308 310 307 308 307 305 307 306 306 305 306 306 305 306 307 308 309 308 310 309
302 302 304 305 307 307 307 306 306 306 306 305 304 304 302 302 302 301 300 300 300 300 300 300 301 301 302 303 304 304 304 305 305 305 305 306 306 305 305 306 306 306 306 306 306 308 309 310 310 306 305 303 303 303 303 303 305 306 306 308 310 311 313 312 311 311 307 310 308 307 310 306 306 305 306 307 305 306 306 306 305 306 309 309 309
302 303 303 305 306 306 306 307 306 305 306 306 306 305 304 303 301 300 299 298 298 298 299 299 299 299 300 301 301 302 303 303 304 304 304 304 304 303 304 304 304 304 303 303 304 304 305 306 306 308 307 305 304 304 304 304 304 305 305 308 311 312 311 309 308 307 309 310 309 308 305 307 304 306 306 308 307 307 306 306 304 305 305 306 308
301 302 303 303 303 304 305 305 306 307 307 306 305 304 302 300 300 298 297 298 298 298 297 298 298 298 299 299 299 299 300 301 302 302 303 302 302 303 303 303 303 303 302 302 303 303 304 305 306 307 305 304 303 304 304 304 303 306 308 309 310 311 309 307 306 309 309 308 307 305 306 304 304 305 306 307 309 308 306 305 305 305 304 306 305
299 301 301 301 303 304 304 304 305 305 304 304 302 301 301 300 298 297 297 297 297 296 296 296 296 297 297 297 298 298 298 298 298 300 300 301 301 301 301 301 302 302 301 302 302 302 302 303 303 305 306 303 301 302 303 302 302 299 299 303 306 308 307 305 304 305 306 305 307 307 305 304 304 305 305 305 305 305 305 305 305 304 304 304 304
299 299 300 302 303 304 304 303 303 303 302 302 301 299 299 299 298 297 296 295 296 296 296 295 296 295 295 296 296 296 296 296 297 297 298 298 298 298 298 299 299 300 299 298 299 299 299 300 301 301 302 304 302 302 302 301 298 299 302 303 302 300 303 303 304 303 304 303 308 306 304 305 304 303 303 303 303 303 304 304 304 304 304 304 304
298 298 299 301 302 303 303 302 301 300 299 298 298 298 298 298 298 297 297 296 294 295 295 294 294 294 293 294 295 295 295 295 295 296 296 296 296 295 296 296 296 297 296 294 294 295 296 296 297 299 300 299 299 300 301 300 299 298 295 296 299 300 299 299 297 301 303 303 304 303 303 303 302 302 301 301 301 301 301 301 302 302 303 303 303
297 297 299 299 301 301 302 302 301 299 299 298 298 298 297 297 296 296 297 296 295 294 293 292 292 292 292 293 293 294 294 294 294 295 295 295 295 295 294 294 294 294 294 293 292 293 294 294 295 294 295 296 294 296 298 299 298 299 297 295 295 295 293 294 295 299 301 300 303 302 302 303 300 299 299 300 301 300 299 299 300 300 302 302 302
296 296 298 299 300 300 300 300 300 300 300 300 300 300 298 297 296 295 293 293 291 291 290 289 290 290 290 292 293 293 293 293 293 294 294 294 294 294 294 293 293 292 293 292 292 292 293 293 293 293 293 294 293 291 291 295 295 295 297 298 296 292 291 293 294 291 295 301 300 301 302 301 299 297 298 299 298 298 297 297 298 299 300 301 301
295 296 297 297 298 298 299 299 298 298 298 298 299 299 298 297 296 295 294 292 290 290 291 291 291 291 291 291 291 292 293 292 293 293 293 293 293 293 293 293 292 292 292 292 291 291 292 292 293 293 292 292 293 290 290 290 292 292 294 294 294 295 297 293 288 290 287 292 295 295 299 298 295 296 298 298 296 297 295 294 296 297 298 300 300
295 295 296 296 296 297 297 297 296 296 297 298 298 298 296 295 294 293 292 291 291 290 291 291 292 291 291 290 290 291 292 292 292 292 292 292 292 292 292 292 292 292 292 291 291 292 293 293 292 293 292 291 291 290 290 290 288 288 291 291 291 292 294 296 295 290 287 284 287 294 297 294 294 293 294 292 294 295 293 293 295 296 297 299 300
294 294 294 295 295 295 296 296 295 296 296 296 296 296 295 294 293 292 291 291 291 291 291 291 291 291 291 291 290 290 290 291 292 292 292 292 291 292 292 291 291 291 291 292 291 291 291 291 291 290 291 291 291 291 290 289 289 288 289 289 289 289 290 291 291 290 286 284 284 286 287 291 291 292 293 292 295 294 292 292 295 296 296 297 298
293 294 294 295 295 295 294 294 294 295 295 295 295 295 295 294 293 292 291 291 291 291 291 291 291 291 290 290 290 290 290 290 291 291 291 291 291 291 290 290 290 290 290 290 291 290 290 290 291 290 290 290 291 290 289 289 290 289 289 289 287 287 287 287 288 287 287 287 284 284 286 285 284 288 291 293 295 292 292 293 294 294 296 296 296
293 294 294 294 294 294 294 293 293 294 294 295 295 294 294 294 293 293 292 291 291 291 290 290 290 290 289 290 290 290 290 289 290 290 290 290 290 290 290 289 289 289 289 289 289 289 289 289 290 290 289 289 289 289 289 289 289 288 289 288 287 287 286 285 285 286 285 284 284 284 285 286 285 285 289 292 291 291 292 293 292 292 295 296 295
Wind_Speed
5 9 11 11 6 9 12 12 12 13 13 13 13 13 13 13 13 12 12 12 12 12 11 11 10 9 10 10 9 10 10 9 9 10 9 10 12 13 12 12 13 14 14 14 14 15 15 15 15 16 16 16 15 15 14 14 15 14 14 14 13 13 13 13 12 11 11 11 12 13 13 14 14 15 16 16 17 17 15 13 11 10 9 10 11
11 9 10 10 4 8 11 12 12 12 13 13 12 13 13 13 12 12 11 11 12 12 11 11 10 9 11 9 9 9 9 9 10 10 10 11 12 12 13 14 13 14 15 14 15 15 15 15 15 16 15 15 15 14 14 13 14 13 13 13 12 12 12 11 11 10 9 9 8 11 12 14 14 15 16 16 16 17 15 16 16 9 7 11 12
11 10 10 11 4 6 9 11 11 12 12 12 13 12 13 13 12 12 11 11 10 10 10 10 9 9 10 10 9 9 9 10 10 10 11 11 11 11 12 13 13 14 14 14 15 15 15 15 15 15 15 14 14 14 13 13 12 12 12 12 11 10 10 10 10 9 8 6 4 3 13 12 13 14 15 15 16 16 16 15 15 13 10 13 13
11 8 11 11 4 5 8 10 9 10 11 11 11 11 12 12 12 12 11 10 10 10 9 9 9 8 8 8 8 8 8 9 10 10 10 11 11 11 12 12 13 14 14 14 14 14 14 15 14 14 14 13 13 13 12 12 12 11 11 10 10 9 9 9 8 8 8 7 6 5 4 7 10 14 14 14 15 15 15 15 15 14 14 14 15
10 9 11 11 10 7 7 9 9 10 10 11 12 12 13 13 12 12 12 11 10 10 9 8 8 8 7 7 8 7 8 8 8 10 10 11 11 11 12 12 13 13 14 14 14 13 14 14 14 14 13 13 13 12 12 11 11 11 10 9 9 7 7 7 7 6 7 8 9 7 7 7 8 12 12 14 14 14 14 15 15 15 14 14 15
9 8 11 11 11 10 7 8 10 11 11 11 12 12 12 12 12 12 11 11 11 9 9 8 8 8 8 7 7 8 8 8 8 9 9 10 11 11 11 12 13 13 13 13 13 13 14 14 14 14 13 13 13 12 11 11 10 10 9 9 8 7 6 6 6 6 7 9 11 2 6 7 7 7 13 13 13 13 13 14 15 15 15 16 14
9 7 9 10 9 10 7 8 10 11 12 12 12 12 12 12 11 11 11 10 10 9 9 8 8 8 7 7 7 7 8 7 8 8 9 10 11 11 11 12 12 12 12 12 13 13 14 14 14 14 14 13 13 12 11 11 10 9 9 8 7 7 7 6 4 6 8 8 2 5 4 7 7 6 12 12 13 13 12 13 14 15 15 15 16
6 6 8 9 8 11 8 6 8 10 11 12 11 11 11 11 10 10 10 9 9 9 9 8 8 8 7 7 7 7 7 7 7 8 8 9 10 11 11 10 11 11 11 12 13 13 13 14 14 14 14 14 13 12 12 10 10 9 8 7 7 7 6 5 4 6 8 3 3 4 4 5 6 6 11 12 13 14 15 13 14 14 14 15 13
6 8 7 9 8 14 9 5 8 9 11 11 11 10 11 11 9 9 9 9 8 7 8 7 8 7 7 7 6 6 7 7 6 7 7 8 9 10 10 10 10 11 11 12 12 13 13 13 13 13 13 13 12 12 12 11 10 9 8 7 6 6 5 4 4 7 8 3 3 4 6 5 5 6 9 12 14 14 15 13 11 13 14 13 12
7 8 6 6 9 12 9 5 7 9 11 11 11 11 11 11 10 10 9 9 8 7 7 6 7 7 7 6 6 5 6 6 6 6 7 7 8 9 10 10 10 10 10 11 12 12 12 12 12 12 12 12 11 11 11 11 10 9 8 8 7 6 4 2 6 7 4 2 4 5 4 6 6 7 10 12 13 13 13 12 10 11 11 12 13
7 7 6 6 12 10 8 3 5 7 9 11 11 10 10 10 10 10 9 8 9 7 6 6 6 7 7 6 5 5 5 6 7 6 7 6 7 9 9 9 9 9 10 9 10 11 11 11 11 11 12 11 11 11 11 10 10 9 9 8 8 7 7 7 8 5 5 4 5 5 2 7 5 6 10 11 12 13 12 11 11 12 12 13 12
5 5 6 9 9 10 8 3 4 7 9 8 11 10 10 10 9 9 9 8 8 8 7 6 6 6 6 6 6 5 5 6 6 7 7 7 7 9 9 9 9 9 9 10 11 11 11 11 11 12 12 11 11 11 11 10 10 10 9 8 8 8 8 9 8 4 2 5 5 4 5 6 10 8 11 11 12 12 12 12 11 11 11 13 13
5 3 6 9 8 6 7 4 3 6 8 9 10 11 11 11 11 10 10 9 8 8 8 7 6 6 6 6 5 6 5 5 6 6 7 7 8 8 9 9 10 9 10 11 12 11 11 11 12 12 12 11 11 11 11 10 10 10 10 9 8 8 8 10 5 3 5 4 4 2 2 5 8 9 10 11 11 12 12 11 11 11 11 11 11
3 3 2 4 6 7 6 3 3 4 6 7 6 9 11 11 10 11 11 10 8 8 7 7 7 7 7 6 5 5 6 4 4 5 6 7 8 8 9 9 10 10 11 12 12 11 11 12 12 12 11 11 11 11 10 10 10 10 10 9 9 10 10 9 6 4 4 4 5 5 5 7 7 9 9 10 11 11 11 11 11 11 11 11 10
4 2 2 2 7 6 6 2 2 3 4 6 7 6 9 10 11 10 10 9 8 7 7 8 6 5 5 6 4 4 4 3 1 1 5 6 6 8 6 8 10 11 12 12 11 11 11 11 12 11 12 11 10 10 10 10 10 10 10 10 10 9 9 5 3 4 3 3 4 2 4 6 9 8 7 9 10 10 11 10 11 11 11 10 10
5 3 1 1 1 6 6 4 2 2 3 5 6 6 7 9 7 6 10 8 8 8 7 8 8 7 5 3 2 7 6 7 4 4 3 6 6 7 9 6 9 10 10 11 11 11 11 11 11 11 11 11 10 10 10 10 10 10 10 10 9 9 10 7 3 3 3 4 3 3 4 8 14 6 8 10 10 9 10 10 11 10 11 10 10
5 3 2 1 3 1 5 6 5 2 3 3 3 6 5 6 6 7 8 9 8 8 7 8 8 7 5 3 3 4 4 5 6 5 5 7 8 8 8 8 8 10 10 11 11 11 11 11 10 10 11 11 10 10 10 10 10 10 10 9 9 9 10 9 3 5 5 5 4 4 8 7 11 9 8 9 9 9 10 11 11 10 9 10 10
5 4 3 2 2 2 2 5 7 6 8 4 2 4 6 6 6 7 6 9 9 7 7 6 7 6 5 5 7 6 5 4 4 5 6 8 8 6 7 8 8 10 11 12 11 11 11 10 9 10 10 10 10 10 10 10 10 10 9 8 7 7 7 9 3 4 4 1 2 4 7 11 11 8 8 9 9 9 10 10 10 9 9 10 10
5 5 4 3 2 1 3 3 5 6 8 7 7 7 8 6 6 4 3 2 4 8 6 7 6 7 6 6 7 7 5 6 6 5 4 6 6 6 6 6 9 10 12 12 12 12 11 9 9 9 9 9 9 9 9 10 10 9 9 7 7 5 8 6 5 4 3 4 4 8 8 14 11 8 8 8 9 9 9 9 9 8 8 9 9
5 4 4 3 2 0 1 3 3 5 6 7 7 7 7 8 5 5 3 3 2 4 7 6 8 8 7 7 7 7 6 6 8 6 6 6 6 3 5 5 7 11 12 12 12 11 10 10 9 8 8 8 8 8 9 9 9 9 7 7 7 9 4 4 4 4 4 5 4 7 11 14 11 9 8 8 9 8 8 8 7 6 7 9 9
3 4 4 3 2 0 0 2 3 4 5 6 6 6 7 8 6 6 6 5 3 3 3 6 6 5 7 7 7 6 7 6 7 6 7 6 6 3 3 6 9 10 11 11 11 10 10 10 10 9 8 7 8 8 8 7 7 6 6 6 9 3 5 4 5 4 4 4 6 7 14 13 11 8 7 7 8 8 8 7 6 6 7 8 7
4 3 4 5 3 2 0 3 3 4 4 4 4 4 5 7 8 8 7 7 6 4 5 5 6 5 4 4 5 6 6 5 6 8 7 7 7 5 2 6 8 10 10 11 10 10 9 10 9 8 8 7 7 4 5 5 5 2 2 7 4 5 4 4 4 4 4 4 5 8 11 11 11 7 8 7 6 7 7 5 6 6 7 7 7
4 4 4 6 5 3 3 2 3 3 5 5 4 4 5 5 7 7 5 7 8 8 7 6 5 6 6 6 6 5 5 4 3 3 2 8 8 8 5 6 10 10 11 10 10 9 9 9 9 7 5 5 4 3 4 2 3 5 5 2 4 3 4 4 3 4 3 4 5 9 9 10 11 9 7 5 6 6 6 6 5 5 5 5 6
6 5 5 4 6 5 5 3 3 4 5 5 5 5 5 5 4 6 6 5 5 7 6 4 4 4 3 4 4 3 4 0 7 8 8 6 7 6 6 7 8 9 9 6 6 5 6 8 8 8 5 2 3 3 4 3 3 3 3 3 3 3 3 3 3 2 3 4 4 8 9 8 9 9 9 8 5 4 4 4 5 4 3 3 5
6 5 5 5 6 7 6 4 3 4 5 5 5 5 4 4 4 5 6 5 5 5 4 5 6 6 6 5 4 4 4 2 3 3 4 4 5 6 5 6 6 6 8 5 5 5 4 4 3 4 2 3 3 4 3 3 4 3 4 3 3 3 2 2 2 2 2 3 5 6 8 8 8 8 8 8 9 12 11 6 4 6 3 2 2
6 5 7 6 7 7 7 6 5 4 5 6 5 4 2 4 4 4 5 4 5 4 4 6 3 3 4 2 2 4 5 1 3 3 3 4 4 6 6 5 3 6 7 5 4 4 4 2 2 2 3 3 4 4 4 4 3 4 4 3 3 2 2 2 2 2 2 1 5 7 6 8 8 7 8 9 9 10 11 11 7 4 7 0 2
6 7 7 7 8 8 7 6 5 4 6 6 5 4 4 3 3 2 3 5 4 3 1 2 3 4 4 3 4 4 5 3 5 4 4 4 5 4 4 5 6 5 6 4 4 4 2 1 1 2 3 3 3 2 3 3 3 4 4 3 3 3 2 2 2 3 2 1 4 5 5 7 8 8 8 8 9 9 9 10 10 7 5 3 5
7 8 8 7 7 9 9 6 3 4 5 5 6 5 4 3 1 2 3 7 2 1 1 1 2 2 1 1 2 1 2 3 2 2 1 3 4 5 4 4 5 5 4 3 3 2 0 1 1 4 2 3 3 2 2 3 3 3 3 4 3 3 3 2 2 2 2 2 2 5 4 5 6 8 8 8 9 9 10 10 11 12 11 10 4
8 9 8 8 8 8 10 5 1 5 5 4 5 5 3 2 2 0 0 2 2 5 5 4 3 4 5 5 5 3 3 2 3 2 3 4 3 2 2 4 4 3 1 3 3 1 3 3 1 2 1 2 3 2 2 3 2 3 3 3 2 2 2 2 2 2 1 1 2 5 4 2 4 6 6 8 9 10 11 10 11 11 11 9 11
8 8 8 7 8 8 9 5 4 3 4 4 4 4 4 3 4 8 9 10 9 8 9 8 8 8 7 7 7 6 4 4 5 5 5 3 5 4 2 4 2 1 2 2 3 2 1 1 1 3 2 0 1 3 1 3 2 2 3 2 2 2 1 1 2 2 2 2 2 3 6 3 2 3 5 6 7 8 10 12 11 11 12 10 10
7 8 8 7 8 8 8 7 3 3 2 3 4 7 10 10 9 8 9 9 8 7 7 7 7 7 7 8 7 6 5 5 5 5 5 5 6 4 3 4 4 4 3 2 1 2 2 4 5 5 5 3 3 2 2 1 2 2 2 2 2 1 1 1 1 1 2 2 2 2 4 6 4 2 4 4 5 7 8 10 11 11 11 12 13
7 8 7 8 8 9 9 8 9 5 6 10 8 8 8 9 9 8 8 8 8 8 7 7 8 8 10 10 8 7 7 6 6 6 6 6 5 7 7 6 6 5 6 6 6 6 5 5 5 4 4 5 4 3 4 4 4 3 2 2 1 1 1 1 1 1 0 0 1 1 1 2 7 4 3 2 4 5 7 8 10 11 11 11 12
5 6 8 8 9 9 7 9 8 9 11 10 9 7 8 8 8 8 7 7 8 8 8 7 8 8 8 9 9 10 8 7 6 6 7 7 6 7 6 6 4 4 5 6 6 4 4 4 3 2 3 1 1 2 1 2 2 3 2 3 3 2 2 2 1 0 0 1 1 1 1 1 1 7 5 4 2 2 5 7 8 9 10 11 11
5 6 8 9 8 6 5 6 7 12 11 9 9 8 8 7 8 7 7 8 7 8 7 7 8 7 8 10 9 10 8 8 7 8 7 7 7 6 6 4 4 5 5 4 5 3 4 4 3 2 2 3 4 3 4 3 3 3 2 2 2 2 2 2 2 2 1 1 1 0 1 1 1 1 2 7 4 3 3 5 6 7 9 9 11
5 6 7 7 8 7 6 7 9 11 10 10 11 10 8 8 8 8 8 8 9 9 8 8 8 7 7 8 10 9 9 9 8 7 7 7 7 6 6 5 5 5 3 2 4 3 4 3 1 1 3 3 3 2 2 1 1 2 3 3 3 2 2 2 1 1 1 1 2 1 2 1 1 1 1 2 6 4 4 4 5 7 7 8 9
7 6 6 6 7 8 9 10 10 11 10 10 10 10 9 9 9 9 9 9 8 8 8 8 8 8 8 8 10 9 10 9 9 7 7 7 7 7 7 6 7 5 5 5 5 5 5 4 5 4 1 2 1 2 1 1 1 2 2 3 3 2 3 2 1 2 1 2 1 2 2 2 3 3 4 2 2 4 4 2 3 6 7 7 8
6 6 6 5 6 7 8 11 11 10 11 12 12 11 10 11 11 10 10 10 9 9 8 8 8 8 8 8 9 9 10 10 10 9 8 8 7 7 7 7 6 5 5 6 6 5 5 5 5 5 5 2 2 2 1 1 2 3 3 4 4 3 3 1 1 1 1 1 1 2 2 2 2 3 3 4 3 3 4 2 2 4 5 5 5
5 6 5 5 6 7 8 9 9 8 8 9 10 9 9 9 10 9 10 11 10 8 7 7 8 8 8 9 9 9 8 10 11 9 9 9 9 9 8 9 8 7 6 6 7 6 6 4 4 5 5 4 3 4 3 3 3 2 2 4 4 3 2 2 0 0 1 2 2 3 2 2 3 3 3 3 3 3 4 2 4 6 5 4 5
5 6 6 6 6 6 7 7 7 7 9 10 11 10 10 10 10 10 10 10 9 8 8 9 8 8 8 9 9 8 8 10 10 10 9 9 9 9 9 10 9 9 9 9 8 8 7 6 5 5 5 5 5 4 4 5 4 3 3 4 4 4 2 0 1 1 1 1 2 1 1 2 3 3 3 2 2 3 3 3 4 4 2 3 4
5 5 6 7 8 7 5 6 8 8 7 7 7 8 7 8 9 8 10 9 8 8 8 8 8 8 8 9 9 9 9 9 10 9 8 8 8 8 8 9 9 8 8 9 8 7 7 6 6 6 5 4 4 4 5 5 6 6 5 5 5 3 1 1 1 2 1 2 2 1 2 2 3 2 2 2 2 2 2 3 3 4 4 5 5
5 5 6 7 6 5 6 8 6 5 5 6 6 7 8 8 8 9 9 8 8 8 9 8 9 9 10 10 10 9 9 10 10 10 9 8 8 8 9 9 7 8 9 9 9 9 8 7 4 2 6 7 8 8 9 8 6 5 3 5 4 3 2 1 3 1 2 2 2 2 2 3 3 3 3 2 2 2 2 3 4 3 4 3 4
5 5 6 6 5 5 7 7 6 7 7 7 7 7 7 7 7 8 8 8 8 8 9 9 9 9 10 10 9 10 10 10 10 10 10 10 9 9 9 10 9 9 9 9 10 10 11 10 9 6 5 7 7 10 9 11 5 7 7 5 2 4 4 3 1 3 5 3 1 2 3 3 4 4 3 3 3 4 4 4 3 4 4 4 4
5 5 4 5 5 6 7 7 7 7 7 7 7 8 8 9 9 9 9 10 10 9 9 9 9 10 11 11 11 10 10 10 10 10 9 10 10 10 9 9 10 9 9 10 11 11 10 11 11 9 6 6 6 7 9 10 7 9 7 5 1 1 4 3 3 8 4 3 1 3 3 3 6 5 5 4 5 5 4 4 5 4 4 5 4
4 4 4 5 5 6 7 7 7 8 8 8 9 10 11 12 11 11 11 10 10 9 11 10 10 11 12 11 11 10 11 10 11 10 10 10 10 10 9 9 9 9 8 9 10 10 10 11 11 11 10 7 7 7 8 10 9 10 7 6 5 3 2 3 11 7 4 1 5 5 4 4 5 6 5 5 5 5 5 5 6 5 5 5 5
4 4 4 4 4 7 7 8 8 9 8 9 10 10 11 11 11 11 10 11 10 9 9 10 10 10 10 10 10 11 11 10 11 11 10 10 10 9 9 9 9 9 8 8 9 9 10 9 10 9 11 8 8 7 7 9 11 10 7 7 5 5 7 8 10 3 5 7 5 6 4 4 5 6 5 5 4 5 5 6 6 5 6 5 5
5 4 4 5 6 6 7 7 7 7 7 7 8 7 7 8 7 7 8 7 9 8 9 8 8 9 9 8 10 10 10 10 10 10 10 10 10 10 10 9 9 9 8 8 8 9 10 10 10 9 10 11 7 7 8 7 8 10 9 7 5 4 7 8 7 5 10 3 5 4 3 5 6 7 5 4 5 4 5 7 6 6 6 5 5
4 4 5 6 6 6 6 7 7 6 6 6 5 5 6 7 8 8 8 8 9 8 8 8 8 8 8 9 9 9 10 10 10 10 10 10 10 10 10 9 9 9 8 8 9 9 8 9 8 9 8 8 8 8 8 8 6 8 7 7 6 5 5 6 5 7 8 5 4 6 3 5 8 7 5 4 6 4 6 7 7 6 6 5 4
4 5 5 6 7 7 7 7 6 6 5 5 7 7 8 9 10 10 9 10 10 10 9 8 8 8 8 9 8 8 9 9 9 10 10 10 9 10 10 9 9 9 8 8 8 8 7 7 8 8 7 7 8 7 7 7 7 6 8 7 7 6 6 3 4 6 6 10 9 3 2 6 5 5 5 8 7 5 8 7 6 6 6 4 4
4 5 5 5 6 7 7 8 8 7 7 8 8 9 9 9 9 9 11 9 10 9 8 8 8 8 9 8 8 8 8 9 9 9 9 9 9 9 9 9 9 9 8 7 8 8 9 9 9 8 8 7 7 7 7 6 6 6 7 6 6 6 6 5 5 5 5 8 8 7 9 5 4 3 2 5 3 5 6 8 7 6 5 4 4
5 6 6 5 6 7 8 9 9 7 7 9 9 10 10 9 10 10 11 10 9 8 8 8 8 7 8 8 7 7 6 7 8 9 8 9 9 9 9 9 9 8 8 8 8 8 8 8 8 8 8 8 7 7 7 6 6 6 6 5 5 6 5 5 5 7 6 5 8 10 9 12 10 5 5 3 2 5 6 6 5 6 5 4 4
5 5 5 6 6 7 9 10 9 8 8 9 10 10 9 9 9 10 11 12 10 9 9 8 7 7 7 7 7 6 6 6 6 7 8 8 8 8 8 8 8 8 8 8 8 7 7 7 7 7 8 8 7 6 7 7 6 6 6 5 5 5 5 6 6 6 7 6 8 8 9 9 10 12 5 4 4 5 5 4 5 6 5 4 5
Wind_Direction
169 165 131 125 162 163 157 153 151 147 144 141 136 131 127 125 122 119 120 118 119 121 125 121 119 126 120 117 121 114 106 93 99 103 97 99 95 88 94 90 85 81 77 72 68 69 66 65 60 55 53 53 53 52 50 46 44 45 44 46 49 51 51 51 45 39 34 38 53 51 55 57 54 53 52 52 53 49 48 46 48 54 45 52 54
149 167 130 140 157 165 159 154 155 149 147 142 141 135 132 126 124 120 121 122 124 127 131 130 126 125 117 125 119 112 101 98 101 103 100 97 95 95 85 82 83 79 77 75 71 67 65 63 59 55 53 51 48 46 43 41 40 39 40 41 44 47 48 48 45 37 31 25 39 69 55 56 55 53 52 51 49 47 49 50 49 54 53 56 53
146 163 132 140 154 165 156 154 157 152 152 147 141 138 132 129 125 124 120 124 123 128 127 131 128 127 126 126 121 111 106 99 93 103 104 100 98 97 94 89 87 86 85 81 77 73 70 66 62 58 55 52 49 44 41 38 36 37 38 37 38 41 44 44 40 27 15 4 6 63 91 68 56 57 55 52 49 46 46 50 54 56 53 53 55
151 162 139 129 154 168 152 152 158 151 151 146 137 134 131 131 129 127 124 124 127 127 130 132 131 126 127 124 118 113 107 100 97 103 111 105 99 96 95 95 93 90 86 82 78 74 70 67 63 60 56 52 51 47 42 38 35 34 36 38 35 36 40 40 34 21 1 354 321 280 61 62 61 57 58 55 51 47 44 44 45 49 57 55 56
150 165 134 146 167 162 152 148 152 154 148 147 140 137 136 135 133 130 131 128 130 129 131 131 129 127 120 121 118 115 114 104 100 102 112 110 106 103 100 99 95 90 87 82 79 74 69 65 63 59 54 51 48 45 43 40 36 33 32 32 36 36 41 40 31 10 349 320 319 306 61 64 66 58 59 58 52 47 45 42 41 39 35 45 52
155 167 143 160 170 157 148 151 157 151 150 145 142 141 139 135 136 135 133 133 130 136 132 136 131 127 125 124 121 118 114 105 105 104 111 114 112 108 105 102 97 91 85 81 77 74 68 63 61 58 54 49 45 40 38 36 36 36 31 29 35 41 47 43 28 356 317 313 294 303 61 58 63 60 56 55 52 47 44 43 40 36 33 30 42
156 166 143 162 169 157 140 159 156 156 153 150 149 144 142 141 141 139 136 135 133 133 140 136 136 131 128 128 124 125 121 114 109 108 111 117 114 111 104 98 95 92 86 81 76 71 66 61 57 52 49 45 41 37 34 31 31 33 33 34 38 44 47 47 12 336 305 288 4 15 53 68 65 66 55 51 46 40 42 44 41 40 35 30 26
143 178 150 153 189 140 139 156 155 164 157 151 150 150 148 146 144 141 139 134 134 136 138 141 139 131 134 130 127 130 125 118 111 107 110 116 117 110 104 96 92 89 84 78 75 68 63 58 53 47 43 39 33 30 28 27 28 29 33 38 41 42 41 34 2 289 290 327 17 32 11 67 77 65 55 55 50 39 28 40 44 45 39 35 30
149 177 169 156 142 135 129 154 162 165 161 155 152 154 153 149 146 141 140 136 138 139 135 147 137 138 133 135 132 132 126 113 108 104 103 105 111 109 105 102 94 90 87 84 79 70 62 56 49 45 42 37 31 25 23 22 23 28 31 37 37 41 38 10 299 286 269 36 17 40 19 6 67 66 54 56 55 49 41 30 32 32 42 37 35
162 164 175 160 139 127 128 148 171 168 164 162 156 158 158 153 149 148 144 144 140 141 138 145 142 137 138 136 136 134 123 115 107 105 100 102 107 108 105 107 105 100 96 90 86 75 63 54 52 47 43 39 33 25 22 22 24 25 31 34 29 25 17 322 290 278 295 54 75 58 28 337 61 52 55 59 58 53 47 39 36 34 32 36 37
150 164 164 139 123 118 116 148 168 172 172 165 155 163 160 156 154 153 147 148 142 146 148 153 154 150 146 143 142 137 129 120 116 115 109 112 115 114 113 106 107 88 78 74 69 68 62 58 54 51 46 40 33 27 26 26 27 29 31 32 27 12 354 325 316 266 22 13 38 76 75 269 68 52 52 52 53 49 43 39 32 31 31 29 30
141 141 169 86 107 115 114 127 177 171 170 175 165 161 162 165 154 158 150 149 151 151 161 172 162 160 156 151 150 151 138 133 129 133 128 119 123 117 114 107 89 83 76 71 73 67 66 57 53 49 46 40 33 30 29 31 33 33 36 32 25 8 348 335 308 25 28 38 40 14 19 38 51 52 45 45 46 39 35 32 29 27 30 29 26
94 125 174 117 129 107 97 117 155 172 175 178 181 166 165 168 166 162 158 160 160 159 170 166 156 173 176 162 160 152 152 147 145 140 133 129 124 124 118 110 88 78 74 73 76 76 66 57 53 49 46 41 34 33 34 37 39 39 35 31 21 3 346 325 329 41 44 23 65 54 61 61 59 42 47 45 39 36 29 27 29 28 27 21 20
81 85 179 182 104 112 90 83 138 156 174 193 182 185 170 166 172 170 163 166 165 165 169 160 161 178 189 170 169 158 161 157 148 148 140 136 136 134 125 109 98 86 84 81 78 72 62 54 49 48 47 42 37 36 38 41 43 43 38 30 16 360 354 306 4 38 32 47 36 25 14 64 41 37 35 34 35 33 27 24 25 21 22 21 18
72 64 112 220 130 163 103 60 85 114 144 174 192 190 180 177 175 181 168 167 167 166 168 160 162 178 205 177 181 130 107 120 141 145 159 148 143 119 112 104 97 93 90 90 84 77 67 58 54 51 47 44 38 39 40 42 44 41 39 32 18 359 351 352 44 59 59 25 78 52 37 51 28 27 25 34 30 27 24 20 21 19 15 15 15
38 59 30 159 245 137 175 138 26 61 105 159 179 189 178 198 184 171 172 165 175 171 174 155 167 184 198 208 178 124 155 163 158 172 137 132 126 123 111 111 101 100 97 99 94 82 72 63 58 54 51 45 42 41 40 42 43 43 38 31 19 2 346 341 43 347 64 50 53 40 47 58 18 360 35 25 15 18 22 18 14 14 15 20 21
66 43 117 119 355 233 187 188 175 60 75 56 162 182 193 193 194 174 181 168 181 177 171 150 169 183 183 172 137 133 147 155 170 158 157 136 148 131 128 122 112 104 104 104 93 84 77 73 65 58 54 51 46 46 44 41 43 43 40 29 21 3 342 333 7 31 46 39 17 3 51 32 12 13 23 14 11 15 18 15 14 16 21 21 22
71 91 107 105 145 293 261 223 171 193 223 170 149 197 180 200 195 192 193 170 182 178 163 149 156 162 140 108 148 145 134 139 162 159 157 150 137 135 138 132 122 116 116 109 103 97 89 82 71 61 58 57 54 50 48 42 38 38 37 25 8 354 318 316 11 52 48 321 34 44 44 14 15 352 357 6 12 14 14 18 22 20 22 24 25
85 76 68 94 83 34 281 277 238 218 216 225 217 178 187 176 185 204 196 235 205 173 169 149 137 135 120 121 134 154 139 146 148 145 135 131 120 136 144 144 128 125 123 118 113 109 104 93 81 70 67 63 59 58 52 46 37 31 23 11 338 322 310 290 36 20 1 38 16 51 19 7 8 354 359 3 13 15 20 21 20 21 22 26 23
80 80 95 73 45 306 243 262 262 240 222 225 230 212 167 151 170 179 205 217 245 259 162 145 138 133 136 146 146 146 150 152 144 138 126 127 144 141 152 131 130 128 127 125 122 117 115 107 94 89 83 78 74 69 61 52 43 31 14 344 331 307 301 35 15 28 13 42 357 44 11 5 3 356 354 9 19 21 27 18 23 23 22 26 23
59 71 55 59 84 105 262 252 256 261 241 232 235 233 152 163 155 162 184 189 237 256 218 140 135 141 155 163 161 192 187 172 162 173 140 149 125 115 176 137 137 132 127 129 130 126 122 116 110 102 103 103 102 95 82 70 56 34 358 330 308 307 32 24 9 37 17 28 34 31 11 7 4 357 7 20 23 24 23 22 15 22 18 28 18
42 30 43 29 23 49 282 220 233 247 252 244 240 246 161 188 209 191 191 186 182 207 206 185 182 183 168 159 211 217 216 190 183 145 177 140 141 134 194 138 134 132 134 141 141 138 127 121 116 117 118 127 167 159 116 111 96 65 340 303 313 33 31 16 20 35 33 27 44 20 11 10 6 0 9 25 28 28 19 17 18 11 25 14 13
32 11 21 12 10 348 357 317 229 227 236 240 235 230 226 201 215 206 191 206 201 193 214 225 218 211 194 215 222 228 220 211 176 156 144 160 141 155 145 137 144 146 149 151 149 141 133 124 124 123 139 166 165 107 87 87 132 181 227 315 44 28 22 25 20 29 44 31 50 16 11 5 4 7 1 11 29 32 19 360 14 346 20 27 5
14 359 1 7 0 349 346 309 309 238 222 218 216 220 221 210 213 201 197 191 213 219 216 209 227 239 211 233 236 258 288 319 92 109 115 159 141 152 148 151 154 154 146 147 137 139 128 121 129 138 185 204 65 68 79 82 53 40 41 30 39 23 24 20 32 21 23 63 53 23 12 5 358 356 3 1 15 18 15 11 360 346 354 355 351
10 338 6 354 3 348 340 325 297 262 232 229 219 216 212 217 197 209 197 190 195 205 224 206 217 198 176 227 229 221 219 202 172 174 210 197 160 179 173 181 173 165 172 168 170 158 184 148 147 200 90 81 69 54 51 66 58 50 52 32 26 25 22 31 26 19 21 56 65 32 15 6 357 353 351 355 350 357 354 349 339 324 294 257 335
6 1 354 350 2 346 339 319 298 267 225 219 212 212 238 222 202 204 190 190 182 180 195 210 202 199 239 175 296 300 254 240 264 189 205 220 191 194 195 180 213 186 190 205 202 181 208 201 90 64 72 62 56 59 43 30 59 58 55 38 23 16 25 22 17 4 15 43 78 44 18 9 2 355 345 338 342 344 351 358 352 325 321 265 287
360 1 355 353 354 347 335 313 289 259 229 212 208 214 217 214 215 196 229 187 179 169 138 288 169 181 221 195 198 212 245 192 229 209 226 212 200 198 208 191 219 205 186 214 209 207 240 318 43 72 78 85 71 63 57 40 38 50 60 52 27 16 23 20 14 7 353 7 97 64 27 10 8 0 352 334 330 335 338 345 348 344 318 289 219
4 0 359 352 351 349 329 315 257 239 210 204 208 199 212 220 180 117 243 45 30 114 63 160 233 190 127 338 316 265 281 294 241 295 73 282 255 212 205 213 216 220 195 215 218 213 67 356 26 82 104 116 99 85 78 60 62 40 56 46 34 21 25 6 23 4 342 345 112 97 53 8 5 1 354 349 336 330 331 336 336 344 347 342 315
7 3 356 354 354 351 325 347 265 225 200 188 197 189 196 209 160 285 242 52 68 35 45 31 27 55 46 40 18 359 299 288 289 233 253 244 244 17 2 295 258 246 180 241 244 197 162 214 279 146 99 92 137 107 95 69 45 54 47 60 46 37 23 12 7 346 347 338 340 114 96 20 359 354 353 352 345 340 333 332 336 340 344 339 344
6 1 352 349 344 342 342 358 323 202 186 168 172 171 182 174 55 53 50 50 46 49 42 43 41 35 31 33 39 24 17 0 351 350 312 355 3 358 319 260 281 267 266 318 345 324 22 288 27 56 71 335 49 68 67 97 73 50 38 58 63 55 52 20 355 352 349 337 333 113 131 137 323 334 348 345 352 348 341 338 338 339 337 339 342
3 359 353 344 331 344 352 355 334 358 183 157 69 59 53 59 59 59 54 54 56 57 53 50 44 35 25 27 38 37 41 54 59 55 55 47 29 19 26 4 25 14 9 355 61 33 29 32 29 13 12 336 45 56 1 61 68 75 59 28 26 61 80 62 32 26 337 346 342 325 151 157 171 222 317 338 350 352 347 342 342 344 340 337 335
2 356 348 337 342 355 4 24 358 359 14 61 63 61 63 63 64 68 61 54 49 55 48 49 48 41 32 26 24 34 34 40 43 61 61 60 58 45 26 31 29 33 34 33 39 47 46 48 44 21 16 3 19 34 7 337 14 46 18 11 351 356 5 70 156 131 160 292 287 296 304 188 172 188 190 306 346 350 349 354 351 346 343 340 336
360 351 347 350 358 1 24 29 21 41 50 56 62 61 63 61 62 70 73 65 57 55 50 49 51 47 43 36 30 28 30 32 38 51 64 63 57 54 53 40 28 32 43 44 47 50 62 65 58 59 38 3 339 43 310 314 17 16 354 11 330 328 348 314 331 240 90 223 249 284 298 296 292 175 173 193 199 331 6 5 358 352 348 343 339
354 355 355 3 359 31 34 40 35 58 50 52 56 62 61 60 64 64 66 70 65 59 51 49 47 45 42 38 37 37 35 31 34 38 44 57 61 58 54 58 54 47 48 47 56 46 57 53 45 89 65 42 52 27 358 0 8 342 333 349 293 326 321 309 320 341 318 273 273 253 266 325 327 344 164 183 185 152 51 18 2 355 348 344 338
2 4 7 346 35 39 37 53 41 63 58 57 59 60 59 62 64 59 56 63 65 62 56 54 53 45 45 43 39 39 45 47 45 45 49 55 53 52 45 37 36 45 41 72 85 76 67 64 3 79 91 67 67 46 25 21 331 326 315 298 293 304 287 273 282 279 278 325 309 333 339 332 350 339 4 340 158 134 89 34 357 342 336 337 334
16 6 354 359 41 41 60 66 55 64 65 62 62 62 60 63 65 56 56 55 61 58 55 54 54 51 48 45 39 41 38 37 39 49 59 53 54 55 51 38 38 45 32 38 54 59 52 43 19 358 42 96 140 108 129 330 283 282 298 290 283 283 291 297 292 287 21 333 346 360 353 4 356 6 327 297 347 133 114 101 341 328 328 326 329
17 9 6 5 37 52 67 75 69 74 76 78 73 68 68 67 64 62 60 58 56 53 51 51 52 48 46 45 33 33 42 38 38 41 42 42 44 50 49 52 51 51 43 39 40 34 47 44 32 13 357 34 38 46 32 341 322 298 277 254 253 259 260 282 306 5 324 325 351 22 10 31 34 342 351 355 357 340 147 181 291 296 295 309 317
21 19 10 29 52 54 58 70 83 79 80 83 83 81 72 73 69 63 59 59 55 53 52 51 48 47 44 42 40 36 31 38 39 39 48 47 44 41 31 27 33 35 42 43 43 42 40 43 45 26 14 18 33 15 356 332 318 290 281 290 288 270 262 257 359 346 343 28 33 21 22 32 46 33 19 8 355 3 346 324 261 261 252 265 311
26 27 23 30 54 58 70 66 69 73 82 86 91 89 82 75 76 70 62 60 56 51 48 50 46 45 43 42 45 44 35 41 42 37 45 45 43 39 40 33 34 34 33 33 32 27 27 29 47 51 46 36 16 10 342 319 296 277 262 258 246 246 253 222 10 36 56 32 35 45 59 48 65 51 45 11 25 357 358 349 356 357 20 195 309
47 46 48 55 61 56 53 67 75 76 75 78 86 90 84 81 83 79 69 61 61 57 53 53 49 47 43 45 44 46 45 44 48 49 57 54 49 43 41 41 43 38 36 33 28 27 20 17 24 25 32 39 32 357 355 334 303 273 257 246 237 238 232 67 94 83 360 27 29 30 46 48 61 58 38 11 12 11 357 2 353 353 347 349 321
57 51 63 56 47 48 60 65 60 62 77 79 78 87 90 87 77 75 78 69 64 61 57 51 49 46 42 45 45 46 46 47 44 45 48 53 54 48 43 43 47 44 41 36 28 26 21 15 358 60 23 29 26 8 360 331 289 303 289 262 237 181 110 164 129 74 8 23 8 55 35 49 51 26 13 355 13 34 2 356 354 343 340 336 327
60 62 60 63 62 65 66 65 57 60 65 66 68 64 60 67 77 72 75 67 57 52 52 45 45 42 40 39 42 42 47 49 47 49 50 51 52 50 46 43 41 45 44 38 31 27 23 20 12 14 50 40 38 12 8 349 1 347 318 321 242 147 137 129 64 25 344 45 39 32 27 53 30 12 355 356 25 4 354 351 349 339 332 331 329
75 67 59 78 75 74 71 69 62 63 60 65 72 74 74 74 82 84 83 83 70 67 65 60 53 49 43 39 37 39 40 44 48 49 51 49 53 54 49 46 44 42 43 37 30 30 23 19 20 17 359 54 49 34 20 14 353 327 278 266 37 347 129 120 40 340 19 71 346 53 47 32 36 13 356 3 4 355 355 358 346 335 333 330 326
94 82 73 73 75 77 78 81 78 74 75 69 80 82 84 88 87 90 86 88 92 84 75 65 58 53 48 43 41 38 40 43 42 48 53 52 52 56 56 53 52 50 51 48 39 34 27 22 21 23 12 26 26 37 34 26 18 2 13 339 303 293 296 75 357 342 81 20 3 31 33 15 29 10 355 2 2 354 357 352 345 340 333 328 325
85 72 66 72 79 79 79 84 84 84 86 92 94 100 101 97 98 102 102 97 89 82 77 67 60 56 55 44 40 40 40 41 40 42 47 51 51 53 56 55 54 50 51 51 47 38 29 27 22 27 23 16 29 20 31 34 32 24 17 358 358 357 19 340 335 307 49 339 42 19 2 26 27 7 351 355 1 352 355 348 346 336 334 330 325
92 73 67 78 85 86 86 87 87 87 94 103 112 114 116 119 121 112 105 95 84 75 72 74 68 62 59 55 48 43 43 43 42 41 41 45 48 48 50 53 52 49 47 49 46 41 32 28 24 24 24 18 19 29 23 22 42 27 27 40 21 359 337 329 332 331 340 350 26 346 358 34 16 354 342 348 1 353 360 344 336 333 331 329 330
92 90 86 82 84 84 84 84 85 82 79 88 93 101 91 85 85 89 92 94 95 82 84 83 82 78 74 65 59 49 45 46 42 41 41 42 46 44 46 49 50 50 47 46 43 38 35 28 21 25 26 21 17 34 26 14 20 32 19 19 14 356 340 347 350 325 329 335 340 333 9 29 11 339 336 357 346 354 357 340 329 330 324 325 326
100 95 85 82 82 87 85 86 84 85 81 83 83 89 97 94 95 92 90 91 92 96 90 88 87 85 80 74 67 58 50 47 46 41 41 41 41 44 43 45 47 45 43 45 41 35 32 30 28 24 24 28 25 22 23 21 21 12 6 10 6 353 344 7 351 346 322 316 320 324 2 1 344 322 345 353 325 358 349 331 320 322 318 316 318
95 92 92 91 93 92 91 91 90 86 82 82 86 87 92 98 99 101 98 94 98 97 97 93 90 86 83 77 72 67 60 50 44 44 41 41 41 42 41 45 43 41 40 40 37 35 33 30 25 26 21 23 29 21 17 15 16 13 359 0 360 358 347 356 353 359 332 317 309 326 320 323 310 296 5 312 320 359 335 315 310 309 307 315 320
93 97 100 104 102 102 99 97 92 90 90 89 89 89 92 97 98 102 105 105 105 103 99 95 90 87 82 78 73 69 62 57 49 42 42 42 42 42 44 43 43 41 39 37 34 33 32 30 29 30 23 22 22 23 24 9 3 16 1 353 356 353 351 348 351 346 327 306 311 316 321 324 323 324 307 273 326 317 303 291 302 308 299 315 320
107 114 108 112 112 111 108 101 99 97 94 94 93 93 94 96 100 103 105 106 105 107 106 97 95 90 88 83 78 73 65 60 54 45 40 41 45 44 45 46 43 41 39 35 30 25 27 28 25 27 30 24 17 14 22 18 3 7 5 1 358 358 346 343 337 339 329 319 315 311 316 315 315 315 318 299 283 275 265 271 290 294 294 310 312